Time,TemperatureF,DewpointF,PressureIn,WindDirection,WindDirectionDegrees,WindSpeedMPH,WindSpeedGustMPH,Humidity,HourlyPrecipIn,Conditions,Clouds,dailyrainin,SoftwareType,DateUTC
2013-08-21 00:24:00,66.0,63.0,-100.00,NE,40,0.0,0.0,90,-99.99,,,-99.99,,2013-08-21 04:24:00,
2013-08-21 00:54:00,66.0,63.0,-100.00,SE,130,0.0,0.0,90,-99.99,,,-99.99,,2013-08-21 04:54:00,
2013-08-21 01:23:00,65.0,63.0,-100.00,SSE,165,0.0,1.0,91,-99.99,,,-99.99,,2013-08-21 05:23:00,
2013-08-21 01:52:00,65.0,62.0,-100.00,SSE,165,0.0,0.0,91,-99.99,,,-99.99,,2013-08-21 05:52:00,
2013-08-21 02:22:00,65.0,62.0,-100.00,WSW,240,0.0,2.0,92,-99.99,,,-99.99,,2013-08-21 06:22:00,
2013-08-21 02:52:00,65.0,63.0,-100.00,SSW,210,1.0,3.0,93,-99.99,,,-99.99,,2013-08-21 06:52:00,
2013-08-21 03:22:00,64.0,62.0,-100.00,SSW,210,0.0,2.0,92,-99.99,,,-99.99,,2013-08-21 07:22:00,
2013-08-21 03:53:00,64.0,62.0,-100.00,South,190,1.0,1.0,92,-99.99,,,-99.99,,2013-08-21 07:53:00,
2013-08-21 04:22:00,64.0,62.0,-100.00,South,175,1.0,2.0,92,-99.99,,,-99.99,,2013-08-21 08:22:00,
2013-08-21 04:52:00,64.0,62.0,-100.00,SSE,155,0.0,1.0,92,-99.99,,,-99.99,,2013-08-21 08:52:00,
2013-08-21 05:22:00,64.0,62.0,-100.00,South,175,1.0,2.0,93,-99.99,,,-99.99,,2013-08-21 09:22:00,
2013-08-21 05:53:00,63.0,61.0,-100.00,West,270,0.0,1.0,94,-99.99,,,-99.99,,2013-08-21 09:53:00,
2013-08-21 06:23:00,62.0,61.0,-100.00,South,170,1.0,1.0,94,-99.99,,,-99.99,,2013-08-21 10:23:00,
2013-08-21 06:52:00,62.0,61.0,-100.00,East,90,0.0,0.0,94,-99.99,,,-99.99,,2013-08-21 10:52:00,
2013-08-21 07:22:00,62.0,60.0,-100.00,SSE,155,0.0,1.0,95,-99.99,,,-99.99,,2013-08-21 11:22:00,
2013-08-21 07:52:00,63.0,62.0,-100.00,SE,140,1.0,2.0,95,-99.99,,,-99.99,,2013-08-21 11:52:00,
2013-08-21 08:22:00,64.0,63.0,-100.00,SE,140,0.0,1.0,95,-99.99,,,-99.99,,2013-08-21 12:22:00,
2013-08-21 08:52:00,68.0,65.0,-100.00,South,175,2.0,4.0,88,-99.99,,,-99.99,,2013-08-21 12:52:00,
2013-08-21 09:21:00,72.0,65.0,-100.00,SSW,200,2.0,5.0,77,-99.99,,,-99.99,,2013-08-21 13:21:00,
2013-08-21 09:52:00,74.0,65.0,-100.00,SSW,205,3.0,7.0,72,-99.99,,,-99.99,,2013-08-21 13:52:00,
2013-08-21 10:21:00,76.0,66.0,-100.00,South,185,2.0,6.0,69,-99.99,,,-99.99,,2013-08-21 14:21:00,
2013-08-21 10:52:00,79.0,67.0,-100.00,SW,225,4.0,7.0,65,-99.99,,,-99.99,,2013-08-21 14:52:00,
2013-08-21 11:22:00,81.0,68.0,-100.00,SSW,200,4.0,9.0,64,-99.99,,,-99.99,,2013-08-21 15:22:00,
2013-08-21 11:54:00,83.0,68.0,-100.00,SSW,210,1.0,6.0,61,-99.99,,,-99.99,,2013-08-21 15:54:00,
2013-08-21 12:04:00,83.0,68.0,-100.00,SSW,210,1.0,6.0,61,-99.99,,,-99.99,,2013-08-21 16:04:00,
2013-08-21 12:24:00,84.0,68.0,-100.00,South,180,8.0,13.0,58,-99.99,,,-99.99,,2013-08-21 16:24:00,
2013-08-21 12:53:00,84.0,69.0,-100.00,SSW,195,5.0,12.0,60,-99.99,,,-99.99,,2013-08-21 16:53:00,
2013-08-21 13:23:00,83.0,68.0,-100.00,SSE,160,10.0,15.0,60,-99.99,,,-99.99,,2013-08-21 17:23:00,
2013-08-21 13:53:00,84.0,68.0,-100.00,SSW,195,8.0,14.0,59,-99.99,,,-99.99,,2013-08-21 17:53:00,
2013-08-21 14:22:00,86.0,68.0,-100.00,SSW,200,3.0,12.0,55,-99.99,,,-99.99,,2013-08-21 18:22:00,
2013-08-21 14:32:00,86.0,68.0,-100.00,SSW,200,3.0,12.0,55,-99.99,,,-99.99,,2013-08-21 18:32:00,
2013-08-21 14:52:00,85.0,68.0,-100.00,SSW,205,6.0,13.0,55,-99.99,,,-99.99,,2013-08-21 18:52:00,
2013-08-21 15:22:00,87.0,67.0,-100.00,SSW,210,6.0,12.0,50,-99.99,,,-99.99,,2013-08-21 19:22:00,
2013-08-21 15:42:00,88.0,66.0,-100.00,SW,215,5.0,10.0,47,-99.99,,,-99.99,,2013-08-21 19:42:00,
2013-08-21 16:22:00,88.0,64.0,-100.00,WSW,255,4.0,9.0,45,-99.99,,,-99.99,,2013-08-21 20:22:00,
2013-08-21 16:52:00,85.0,63.0,-100.00,SW,235,2.0,11.0,48,-99.99,,,-99.99,,2013-08-21 20:52:00,
2013-08-21 17:22:00,88.0,64.0,-100.00,SW,215,3.0,8.0,44,-99.99,,,-99.99,,2013-08-21 21:22:00,
2013-08-21 17:54:00,89.0,64.0,-100.00,SW,220,4.0,9.0,43,-99.99,,,-99.99,,2013-08-21 21:54:00,
2013-08-21 18:24:00,88.0,64.0,-100.00,SW,220,4.0,9.0,45,-99.99,,,-99.99,,2013-08-21 22:24:00,
2013-08-21 18:53:00,87.0,64.0,-100.00,SSW,195,3.0,9.0,47,-99.99,,,-99.99,,2013-08-21 22:53:00,
2013-08-21 19:22:00,85.0,64.0,-100.00,SSW,210,3.0,9.0,49,-99.99,,,-99.99,,2013-08-21 23:22:00,
2013-08-21 19:53:00,82.0,65.0,-100.00,WSW,240,2.0,6.0,55,-99.99,,,-99.99,,2013-08-21 23:53:00,
2013-08-21 20:22:00,80.0,65.0,-100.00,SW,230,1.0,3.0,60,-99.99,,,-99.99,,2013-08-22 00:22:00,
2013-08-21 20:32:00,80.0,65.0,-100.00,SW,230,1.0,3.0,60,-99.99,,,-99.99,,2013-08-22 00:32:00,
2013-08-21 20:52:00,76.0,66.0,-100.00,SW,220,1.0,3.0,70,-99.99,,,-99.99,,2013-08-22 00:52:00,
2013-08-21 21:22:00,74.0,67.0,-100.00,SW,225,1.0,4.0,78,-99.99,,,-99.99,,2013-08-22 01:22:00,
2013-08-21 21:52:00,73.0,67.0,-100.00,SW,215,1.0,2.0,82,-99.99,,,-99.99,,2013-08-22 01:52:00,
2013-08-21 22:22:00,71.0,67.0,-100.00,WSW,245,1.0,2.0,86,-99.99,,,-99.99,,2013-08-22 02:22:00,
2013-08-21 23:22:00,70.0,67.0,-100.00,SSW,210,1.0,4.0,90,-99.99,,,-99.99,,2013-08-22 03:22:00,
2013-08-21 23:54:00,70.0,67.0,-100.00,SSW,210,2.0,4.0,90,-99.99,,,-99.99,,2013-08-22 03:54:00,